Location: Ch�risy
(50.2331°N, 2.9131°E)
Time: 01:59:21
(UTC+00:00)

Lacrosse 5 - Pass Details

Date: 17 January 2021
Orbit: 715 x 724 km, 57.0° (Epoch: 28 February)

Event Time Altitude Azimuth Distance (km) Brightness Sun altitude
Rises 20:12:14 0° 300° (WNW) 3,124 6.0 -36.9°
Reaches altitude 10° 20:14:48 10° 291° (WNW) 2,201 5.1 -37.3°
Enters shadow 20:16:52 21° 275° (W) 1,566 4.1 -37.6°
